Regional Weather Roundup
Issued by NWS Goodland, KS

Home | Current Version | Previous Version | Graphics & Text | Print | Product List | Glossary On
Versions: 1 2 3 4 5 6 7 8 9 10 11 12 13 14 15 16 17 18 19 20 21 22 23 24 25 26 27 28 29 30 31 32 33 34 35 36 37 38 39 40 41 42 43 44 45 46 47 48 49 50
000
ASUS43 KGLD 250208
RWRGLD

GOODLAND FORECAST AREA HOURLY WEATHER ROUNDUP
NATIONAL WEATHER SERVICE GOODLAND KS
800 PM MDT THU JUL 24 2014

...OFFICIAL OBSERVATIONS...

CITY           SKY/WX    TMP DP  RH WIND       PRES   REMARKS
GOODLAND KS    CLOUDY    88  50  27 S13       29.91R
HILL CITY KS   CLOUDY    90  70  51 S15G24    29.85S
IMPERIAL NEB   CLOUDY    80  58  46 NE5       29.90R
MCCOOK NEB     CLOUDY    89  55  31 SW7       29.84R
AKRON CO       MOCLDY    81  50  33 SE9       30.01R
BURLINGTON CO  CLOUDY    90  43  19 N14G21    29.96R
LIMON CO       LGT RAIN  72  56  57 W24G41    30.09R
$$

...UNOFFICIAL OBSERVATIONS...

CITY           SKY/WX    TMP DP  RH WIND       PRES   REMARKS
COLBY KS       CLEAR     91  57  31 S15G23    29.89S
GOVE KS          N/A     88  32  13 MISG        N/A
LENORA KS        N/A     89  32  13 MISG        N/A
NORTON KS      CLEAR     88  64  45 SE10      29.84S
OBERLIN KS     FAIR      91  50  24 S12       29.85R
SHARON SPRINGS   N/A     91  52  26 S15G26      N/A
TRIBUNE KS     CLOUDY    90 N/A N/A S23       29.93R
WAKEENEY KS      N/A     89  65  45 MISG        N/A
TRENTON NEB      N/A     87  32  14 N7          N/A
KIT CARSON CO    N/A     90  39  16 CALM        N/A
YUMA CO          N/A     78  56  46 CALM        N/A
$$



USA.gov is the U.S. government's official web portal to all federal, state and local government web resources and services.